Location: Almena City Lake
(39.8850°N, 99.6804°W)
Time: 10:32:12
(UTC+00:00)

Meteor 2-3 Rocket - Pass Details

Date: 18 February 2020
Orbit: 842 x 885 km, 81.3° (Epoch: 04 April)

Event Time Altitude Azimuth Distance (km) Brightness Sun altitude
Rises 11:40:45 0° 348° (NNW) 3,465 6.8 -21.2°
Reaches altitude 10° 11:43:11 10° 346° (NNW) 2,529 6.1 -20.8°
Maximum altitude 11:48:55 72° 264° (W) 925 3.6 -19.7°
Drops below altitude 10° 11:54:39 10° 181° (S) 2,534 6.2 -18.6°
Sets 11:57:06 0° 179° (S) 3,471 6.9 -18.1°
